Weather History for Montague, CA

Change the Weather History Date:

Saturday, October 26, 2013

  Actual Average Record
Temperature  
Mean Temperature 49 °F 48 °F  
Max Temperature 71 °F 62 °F 80 °F (1966)
Min Temperature 26 °F 34 °F 23 °F (2006)
Degree Days  
Heating Degree Days 16 17  
Month to date heating degree days 398 319  
Since 1 July heating degree days 545 461  
Cooling Degree Days 0 0  
Month to date cooling degree days 0 0  
Year to date cooling degree days 776 542  
Moisture  
Dew Point 23 °F    
Average Humidity 45    
Maximum Humidity 75    
Minimum Humidity 19    
Precipitation  
Precipitation 0.00 in 0.06 in 1.26 in (1975)
Month to date precipitation T 0.85  
Year to date precipitation 5.07 12.49  
Sea Level Pressure  
Sea Level Pressure 30.26 in    
Wind  
Wind Speed 2 mph (SSE)    
Max Wind Speed 12 mph    
Max Gust Speed 12 mph    
Visibility 10 miles    
Events      
T = Trace of Precipitation, MM = Missing Value Source: NWS Daily Summary

Daily Weather History Graph

Daily Weather History Graph

Search for Another Location

Airport:

Trip Planner

Search our weather history database for the weather conditions in past years. The results will help you decide how hot, cold, wet, or windy it might be!

Date:

Astronomy

Oct. 26, 2013 Rise Set
Actual Time 7:35 AM PDT 6:11 PM PDT
Civil Twilight 7:06 AM PDT 6:40 PM PDT
Nautical Twilight 6:34 AM PDT 7:12 PM PDT
Astronomical Twilight 6:01 AM PDT 7:45 PM PDT
Moon No Moon Rise 1:55 PM PDT (10/26)
Length of Visible Light 11h 33m
Length of Day
10h 36m
Waning Gibbous, 52% of the Moon is Illuminated
Oct 26
Waning Gibbous
Oct 26
Last Quarter
Nov 3
New
Nov 9
First Quarter
Nov 17
Full

Hourly Weather History & Observations

Time (PDT) Temp. Windchill Dew Point Humidity Pressure Visibility Wind Dir Wind Speed Gust Speed Precip Events Conditions
12:53 AM 39.0 °F - 23.0 °F 53% 30.27 in 10.0 mi Calm Calm - N/A   Clear
1:53 AM 35.1 °F - 19.9 °F 54% 30.28 in 10.0 mi Calm Calm - N/A   Clear
2:53 AM 33.1 °F - 18.0 °F 54% 30.29 in 10.0 mi Calm Calm - N/A   Clear
3:53 AM 30.0 °F - 19.9 °F 66% 30.30 in 10.0 mi Calm Calm - N/A   Clear
4:53 AM 30.9 °F - 21.0 °F 67% 30.30 in 10.0 mi Calm Calm - N/A   Clear
5:53 AM 28.0 °F - 18.0 °F 66% 30.31 in 10.0 mi Calm Calm - N/A   Clear
6:53 AM 26.1 °F - 17.1 °F 69% 30.35 in 10.0 mi Calm Calm - N/A   Clear
7:53 AM 27.0 °F - 19.0 °F 72% 30.36 in 10.0 mi Calm Calm - N/A   Clear
8:53 AM 36.0 °F - 24.1 °F 62% 30.37 in 10.0 mi Calm Calm - N/A   Clear
9:53 AM 45.0 °F - 28.0 °F 52% 30.36 in 10.0 mi Calm Calm - N/A   Clear
10:53 AM 51.1 °F - 28.9 °F 43% 30.34 in 10.0 mi Calm Calm - N/A   Clear
11:53 AM 57.0 °F - 27.0 °F 32% 30.32 in 10.0 mi Calm Calm - N/A   Clear
12:53 PM 61.0 °F - 27.0 °F 27% 30.28 in 10.0 mi Calm Calm - N/A   Clear
1:53 PM 66.0 °F - 27.0 °F 23% 30.24 in 10.0 mi Calm Calm - N/A   Clear
2:53 PM 69.1 °F - 27.0 °F 21% 30.21 in 10.0 mi South 5.8 mph - N/A   Clear
3:53 PM 71.1 °F - 26.1 °F 19% 30.19 in 10.0 mi South 5.8 mph - N/A   Clear
4:53 PM 71.1 °F - 26.1 °F 19% 30.17 in 10.0 mi WSW 4.6 mph - N/A   Clear
5:53 PM 66.0 °F - 28.0 °F 24% 30.17 in 10.0 mi Calm Calm - N/A   Clear
6:53 PM 53.1 °F - 23.0 °F 31% 30.20 in 10.0 mi Calm Calm - N/A   Clear
7:53 PM 50.0 °F - 24.1 °F 36% 30.21 in 10.0 mi Calm Calm - N/A   Clear
8:53 PM 48.9 °F - 23.0 °F 36% 30.19 in 10.0 mi Calm Calm - N/A   Clear
9:53 PM 43.0 °F 41.3 °F 23.0 °F 45% 30.18 in 10.0 mi SSE 3.5 mph - N/A   Clear
10:53 PM 37.9 °F 35.5 °F 19.0 °F 47% 30.17 in 10.0 mi NE 3.5 mph - N/A   Clear
11:53 PM 34.0 °F 28.0 °F 19.9 °F 56% 30.15 in 10.0 mi NNE 6.9 mph - N/A   Clear